Seattle, WA
on Friday, January 4, 2013

Friday
Previous Day Next Day
Daily Summary
 ActualAverageRecord
Temperature
Mean Temperature °F 41°F  
Max Temperature 50°F 46°F 61°F (1984)
Min Temperature 36°F 36°F 14°F (1950)
Degree Days
Heating Degree Days 22 24  
Month to date heating degree days 109 96  
Since 1 July heating degree days 1860 2034  
Cooling Degree Days 0 0  
Month to date cooling degree days 0 0  
Year to date cooling degree days 0 0  
Moisture
Dew Point 39°F   
Average Humidity 83    
Maximum Humidity 96    
Minimum Humidity 70    
Precipitation
Precipitation 0.10 in 0.19 in 1.56 in (1967)
Month to date precipitation 0.26 0.74  
Year to date precipitation 0.26 0.74  
Snow
Snow 0.00 in in 5.90 in (1967)
Month to date snowfall 0.0  
Since 1 July snowfall 0.6  
Snow Depth 0.00 in   
Wind
Wind Speed 6 mph   
Max Wind Speed 14 mph   
Max Gust Speed 18 mph   
Visibility 8 miles   
Events Rain   

Key: T is trace of precipitation, MM is missing value
Source: NWS Daily Summary
Time(PST)TemperatureDew PointHumidity Pressure Visibility Wind DirectionWind SpeedGust SpeedPrecipitationEvents Conditions
12:53 AM 37.0°F 35.1°F 93% 30.20 in 3.0 miles SE 5.8 mph - 0.04 in Rain Light Rain
1:22 AM 37.4°F 35.6°F 93% 30.18 in 5.0 miles SE 5.8 mph - 0.01 in   Overcast
1:53 AM 37.9°F 35.1°F 89% 30.23 in 5.0 miles ESE 5.8 mph - 0.01 in Rain Light Rain
2:46 AM 37.4°F 35.6°F 93% 30.21 in 5.0 miles SE 6.9 mph - 0.01 in Rain Light Rain
2:53 AM 37.9°F 36.0°F 93% 30.25 in 3.0 miles SE 6.9 mph - 0.01 in Rain Light Rain
3:53 AM 39.0°F 37.0°F 93% 30.26 in 3.0 miles SE 8.1 mph - 0.00 in   Overcast
4:53 AM 41.0°F 37.9°F 89% 30.26 in 3.0 miles SE 10.4 mph - 0.01 in   Overcast
5:18 AM 41.0°F 39.2°F 93% 30.24 in 3.0 miles Calm Calm - 0.00 in Rain Light Rain
5:53 AM 41.0°F 39.0°F 93% 30.28 in 3.0 miles Calm Calm - 0.00 in Rain Light Rain
5:55 AM 41.0°F 39.2°F 93% 30.25 in 2.5 miles Calm Calm - 0.00 in Rain Light Rain
6:00 AM 41.0°F 39.2°F 93% 30.25 in 2.5 miles Calm Calm - 0.00 in Rain Light Rain
6:53 AM 42.1°F 39.0°F 89% 30.29 in 2.5 miles SE 5.8 mph - 0.03 in Rain Light Rain
7:29 AM 41.0°F 39.2°F 93% 30.27 in 5.0 miles SSE 6.9 mph - 0.01 in   Overcast
7:53 AM 41.0°F 39.9°F 96% 30.30 in 8.0 miles South 3.5 mph - 0.01 in   Overcast
8:53 AM 43.0°F 41.0°F 93% 30.32 in 10.0 miles SSW 8.1 mph - N/A   Overcast
9:53 AM 44.1°F 41.0°F 89% 30.34 in 10.0 miles SSW 11.5 mph - N/A   Mostly Cloudy
10:53 AM 46.0°F 42.1°F 86% 30.34 in 10.0 miles SW 13.8 mph - N/A   Mostly Cloudy
11:18 AM 46.4°F 42.8°F 87% 30.30 in 10.0 miles SSW 10.4 mph - N/A   Scattered Clouds
11:53 AM 48.0°F 42.1°F 80% 30.32 in 10.0 miles SSW 12.7 mph - N/A   Scattered Clouds
12:40 PM 48.2°F 42.8°F 82% 30.28 in 10.0 miles SW 6.9 mph - N/A   Scattered Clouds
12:53 PM 48.9°F 41.0°F 74% 30.31 in 10.0 miles SSW 11.5 mph - N/A   Mostly Cloudy
1:53 PM 48.9°F 39.9°F 71% 30.29 in 10.0 miles SSW 4.6 mph - N/A   Scattered Clouds
2:53 PM 48.0°F 39.0°F 71% 30.29 in 10.0 miles SSW 3.5 mph - N/A   Mostly Cloudy
3:41 PM 48.2°F 41.0°F 76% 30.26 in 10.0 miles SE 3.5 mph - N/A   Mostly Cloudy
3:53 PM 48.0°F 41.0°F 77% 30.28 in 10.0 miles Calm Calm - N/A   Mostly Cloudy
4:53 PM 46.0°F 41.0°F 83% 30.26 in 10.0 miles NE 5.8 mph - N/A   Mostly Cloudy
5:53 PM 46.0°F 41.0°F 83% 30.24 in 10.0 miles NE 4.6 mph - N/A   Mostly Cloudy
6:53 PM 44.1°F 39.9°F 85% 30.23 in 10.0 miles Calm Calm - N/A   Mostly Cloudy
7:53 PM 44.1°F 39.9°F 85% 30.22 in 10.0 miles North 6.9 mph - N/A   Overcast
8:53 PM 43.0°F 39.0°F 86% 30.21 in 10.0 miles ENE 5.8 mph - N/A   Overcast
9:53 PM 43.0°F 36.0°F 76% 30.20 in 10.0 miles ESE 5.8 mph - N/A   Overcast
10:53 PM 44.1°F 35.1°F 71% 30.20 in 10.0 miles ESE 5.8 mph - N/A   Overcast
11:53 PM 43.0°F 33.1°F 68% 30.19 in 10.0 miles East 3.5 mph - N/A   Overcast
Moon Phase
Jan. 04 Jan. 04 Jan. 11 Jan. 18 Jan. 26
Sunrise:07:56 AM (PST) Moon Rise:No Moon Rise/
Sunset:04:32 PM (PST) Moon Set:11:09 AM (PST)1/4

Copyright © 2014 The Weather Underground, Inc.